TimePDT,TemperatureF,Dew PointF,Humidity,Sea Level PressureIn,VisibilityMPH,Wind Direction,Wind SpeedMPH,Gust SpeedMPH,PrecipitationIn,Events,Conditions,WindDirDegrees,DateUTC
12:52 AM,66.0,37.9,36,30.03,10.0,NNW,5.8,-,N/A,,Clear,340,2013-05-10 07:52:00
1:52 AM,59.0,42.1,53,30.05,10.0,Calm,Calm,-,N/A,,Clear,0,2013-05-10 08:52:00
2:52 AM,55.0,41.0,59,30.06,10.0,Calm,Calm,-,N/A,,Clear,0,2013-05-10 09:52:00
3:52 AM,53.1,41.0,64,30.07,10.0,NNE,4.6,-,N/A,,Clear,20,2013-05-10 10:52:00
4:52 AM,51.1,39.9,66,30.08,10.0,Calm,Calm,-,N/A,,Clear,0,2013-05-10 11:52:00
5:52 AM,51.1,39.9,66,30.09,10.0,NNE,4.6,-,N/A,,Clear,20,2013-05-10 12:52:00
6:52 AM,55.9,41.0,57,30.11,10.0,North,3.5,-,N/A,,Clear,360,2013-05-10 13:52:00
7:52 AM,62.1,42.1,48,30.11,10.0,Calm,Calm,-,N/A,,Clear,0,2013-05-10 14:52:00
8:52 AM,72.0,39.9,31,30.11,10.0,North,3.5,-,N/A,,Clear,360,2013-05-10 15:52:00
9:52 AM,78.1,37.0,23,30.11,10.0,North,5.8,-,N/A,,Clear,10,2013-05-10 16:52:00
10:52 AM,82.0,35.1,18,30.11,10.0,Variable,3.5,-,N/A,,Clear,0,2013-05-10 17:52:00
11:52 AM,84.9,32.0,15,30.10,10.0,Variable,4.6,-,N/A,,Clear,0,2013-05-10 18:52:00
12:52 PM,87.1,32.0,14,30.09,10.0,SSW,5.8,-,N/A,,Clear,210,2013-05-10 19:52:00
1:52 PM,90.0,37.0,15,30.08,10.0,SE,4.6,-,N/A,,Clear,140,2013-05-10 20:52:00
2:52 PM,91.9,37.0,15,30.07,10.0,South,8.1,-,N/A,,Clear,190,2013-05-10 21:52:00
3:52 PM,93.0,37.0,14,30.05,10.0,Variable,6.9,-,N/A,,Clear,0,2013-05-10 22:52:00
4:52 PM,93.0,32.0,12,30.03,10.0,SSW,3.5,-,N/A,,Clear,210,2013-05-10 23:52:00
5:52 PM,93.0,28.9,10,30.03,10.0,SSW,8.1,-,N/A,,Clear,200,2013-05-11 00:52:00
6:52 PM,91.0,30.9,12,30.01,10.0,SSE,4.6,-,N/A,,Clear,150,2013-05-11 01:52:00
7:52 PM,84.9,42.1,22,30.02,10.0,SE,4.6,-,N/A,,Clear,130,2013-05-11 02:52:00
8:52 PM,82.0,41.0,23,30.02,10.0,South,4.6,-,N/A,,Clear,170,2013-05-11 03:52:00
9:52 PM,82.0,35.1,18,30.04,10.0,NNW,10.4,-,N/A,,Clear,330,2013-05-11 04:52:00
10:52 PM,73.0,36.0,26,30.04,10.0,North,5.8,-,N/A,,Clear,360,2013-05-11 05:52:00
11:52 PM,71.1,39.0,31,30.05,10.0,NNE,4.6,-,N/A,,Clear,30,2013-05-11 06:52:00